Location: Ballingbuur
(53.0000°N, 5.7667°E)
Time: 07:05:12
(UTC+00:00)

Cosmos 2227 - Pass Details

Date: 29 November 2020
Orbit: 833 x 863 km, 71.0° (Epoch: 24 January)

Event Time Altitude Azimuth Distance (km) Brightness Sun altitude
Exits shadow 04:02:26 72° 124° (SE) 877 4.2 -29.4°
Maximum altitude 04:02:30 72° 118° (ESE) 877 4.3 -29.4°
Drops below altitude 10° 04:08:06 10° 34° (NE) 2,456 7.0 -28.6°
Sets 04:10:34 0° 33° (NNE) 3,395 7.8 -28.2°
